Вернуться в каталог

MERIDIAN 11

АктивенВоенныеHEO
NORAD 68571·PAYLOAD·🇷🇺 Russia

Запущен Jan 3, 2026 с Plesetsk Cosmodrome

Loading…

Ближайшие Пролёты (ближайшие 24 часа)

TLE

СвежийSource: Space-Track

Эпоха: Sep 14, 2026, 22:29 UTC

1 68571U 26071A   26257.93719847  .00000133  00000-0  00000-0 0  9990
2 68571  62.8346 216.9512 7119451 285.4850  11.4052  2.00608356  3314

Отслеживайте MERIDIAN 11 в реальном времени с AllMySat

Download on the App Store